| time (UTC) | temp C | wind direction | speed KPH | gust KPH | rain 1hr cm | rain 24hr cm | rain mn cm | humidity % | barometer mb |
| 20260503224517 | 10 | 233 | 3.2 | 12.9 | 0.03 | 0.13 | 0.13 | 80 | 1008.8 |
| 20260503223015 | 10 | 196 | 1.6 | 9.7 | 0.03 | 0.13 | 0.13 | 84 | 1009.2 |
| 20260503221512 | 9 | 211 | 3.2 | 9.7 | 0.03 | 0.13 | 0.13 | 84 | 1009.4 |
| 20260503220012 | 9 | 224 | 0.0 | 11.3 | 0.03 | 0.13 | 0.13 | 84 | 1009.9 |
| 20260503214511 | 9 | 224 | 4.8 | 16.1 | 0.03 | 0.10 | 0.10 | 84 | 1009.9 |
| 20260503213017 | 8 | 225 | 11.3 | 22.5 | 0.03 | 0.10 | 0.10 | 84 | 1009.7 |
| 20260503211509 | 8 | 166 | 9.7 | 19.3 | 0.03 | 0.10 | 0.10 | 85 | 1009.6 |
| 20260503210009 | 8 | 231 | 11.3 | 25.7 | 0.03 | 0.10 | 0.10 | 84 | 1009.7 |
| 20260503204507 | 8 | 233 | 16.1 | 25.7 | 0.00 | 0.08 | 0.08 | 82 | 1009.7 |
| 20260503203013 | 8 | 228 | 14.5 | 22.5 | 0.00 | 0.08 | 0.08 | 84 | 1009.7 |
| 20260503201505 | 8 | 227 | 12.9 | 22.5 | 0.00 | 0.08 | 0.08 | 85 | 1009.9 |
| 20260503200006 | 8 | 231 | 12.9 | 27.4 | 0.05 | 0.08 | 0.08 | 85 | 1010.3 |
| 20260503194600 | 8 | 238 | 14.5 | 22.5 | 0.08 | 0.08 | 0.08 | 86 | 1010.3 |
| 20260503193112 | 7 | 207 | 11.3 | 17.7 | 0.08 | 0.08 | 0.08 | 86 | 1010.8 |
| 20260503191606 | 7 | 217 | 8.0 | 14.5 | 0.08 | 0.08 | 0.08 | 85 | 1011.1 |
| 20260503190103 | 8 | 234 | 6.4 | 16.1 | 0.05 | 0.05 | 0.05 | 82 | 1011.7 |
| 20260503184556 | 10 | 248 | 9.7 | 27.4 | 0.00 | 0.00 | 0.00 | 70 | 1011.6 |
| 20260503183112 | 12 | 264 | 16.1 | 33.8 | 0.00 | 0.00 | 0.00 | 56 | 1011.3 |
| 20260503181619 | 13 | 294 | 11.3 | 22.5 | 0.00 | 0.00 | 0.00 | 51 | 1010.9 |
| 20260503180052 | 12 | 245 | 8.0 | 27.4 | 0.00 | 0.00 | 0.00 | 52 | 1011.0 |
| 20260503174549 | 12 | 229 | 9.7 | 25.7 | 0.00 | 0.00 | 0.00 | 51 | 1011.2 |
| 20260503173055 | 12 | 212 | 16.1 | 30.6 | 0.00 | 0.00 | 0.00 | 49 | 1011.7 |
| 20260503171545 | 12 | 251 | 11.3 | 24.1 | 0.00 | 0.00 | 0.00 | 48 | 1011.8 |
| 20260503081511 | 1 | 242 | 8.0 | 14.5 | 0.00 | 0.00 | 0.00 | 73 | 1015.1 |
| 20260503071501 | 0 | 219 | 3.2 | 9.7 | 0.00 | 0.00 | 0.00 | 78 | 1015.2 |
| 20260503070113 | 0 | 225 | 0.0 | 0.0 | 0.00 | 0.00 | 0.00 | 78 | 1015.3 |
| 20260503060114 | 0 | 211 | 1.6 | 6.4 | 0.00 | 0.00 | 0.00 | 78 | 1015.9 |
| 20260503054547 | -1 | 226 | 1.6 | 6.4 | 0.00 | 0.00 | 0.00 | 85 | 1016.0 |
| 20260503053044 | -1 | 307 | 0.0 | 0.0 | 0.00 | 0.00 | 0.00 | 86 | 1016.3 |
| 20260503051547 | -1 | 307 | 0.0 | 0.0 | 0.00 | 0.00 | 0.00 | 85 | 1016.4 |
| 20260503050041 | -1 | 307 | 0.0 | 0.0 | 0.00 | 0.00 | 0.00 | 84 | 1016.6 |
| 20260503044542 | -1 | 307 | 0.0 | 0.0 | 0.00 | 0.00 | 0.00 | 84 | 1016.8 |
| 20260503043037 | -1 | 307 | 0.0 | 0.0 | 0.00 | 0.00 | 0.00 | 84 | 1017.0 |
| 20260503041536 | -1 | 307 | 0.0 | 0.0 | 0.00 | 0.00 | 0.00 | 83 | 1017.1 |
| 20260503040035 | -1 | 307 | 0.0 | 0.0 | 0.00 | 0.00 | 0.00 | 83 | 1017.2 |
| 20260503034532 | -1 | 307 | 0.0 | 0.0 | 0.00 | 0.00 | 0.00 | 82 | 1017.3 |
| 20260503033033 | 0 | 307 | 0.0 | 0.0 | 0.00 | 0.00 | 0.00 | 81 | 1017.3 |
| 20260503031529 | 0 | 307 | 0.0 | 0.0 | 0.00 | 0.00 | 0.00 | 79 | 1017.4 |
| 20260503030028 | 0 | 307 | 0.0 | 0.0 | 0.00 | 0.00 | 0.00 | 79 | 1017.4 |
| 20260503024527 | 0 | 307 | 0.0 | 0.0 | 0.00 | 0.00 | 0.00 | 79 | 1017.6 |
| 20260503023024 | 0 | 307 | 0.0 | 0.0 | 0.00 | 0.00 | 0.00 | 78 | 1017.7 |
| 20260503021524 | 0 | 307 | 0.0 | 0.0 | 0.00 | 0.00 | 0.00 | 77 | 1017.7 |
| 20260503020023 | 0 | 307 | 0.0 | 0.0 | 0.00 | 0.00 | 0.00 | 74 | 1017.5 |
| 20260503014521 | 1 | 307 | 0.0 | 0.0 | 0.00 | 0.00 | 0.00 | 72 | 1017.5 |
| 20260503013021 | 1 | 307 | 0.0 | 0.0 | 0.00 | 0.00 | 0.00 | 70 | 1017.5 |
| 20260503011522 | 2 | 307 | 0.0 | 0.0 | 0.00 | 0.00 | 0.00 | 66 | 1017.5 |
| 20260503010021 | 2 | 307 | 0.0 | 0.0 | 0.00 | 0.00 | 0.00 | 62 | 1017.5 |
| 20260503004520 | 3 | 307 | 0.0 | 0.0 | 0.00 | 0.00 | 0.00 | 57 | 1017.4 |
| 20260503003020 | 4 | 307 | 0.0 | 0.0 | 0.00 | 0.00 | 0.00 | 53 | 1017.5 |
| 20260503001520 | 5 | 307 | 0.0 | 3.2 | 0.00 | 0.00 | 0.00 | 45 | 1017.5 |
| 20260503000020 | 5 | 310 | 1.6 | 9.7 | 0.00 | 0.00 | 0.00 | 43 | 1017.5 |
| 20260502234518 | 6 | 292 | 3.2 | 14.5 | 0.00 | 0.00 | 0.00 | 41 | 1017.4 |
| 20260502233020 | 6 | 301 | 3.2 | 16.1 | 0.00 | 0.00 | 0.00 | 41 | 1017.4 |
| 20260502231519 | 6 | 319 | 4.8 | 14.5 | 0.00 | 0.00 | 0.00 | 40 | 1017.4 |
| 20260502230022 | 6 | 271 | 4.8 | 14.5 | 0.00 | 0.00 | 0.00 | 39 | 1017.3 |